FW0859 Weather Reports


time (UTC)temp
C
wind
direction
speed
KPH
gust
KPH
rain 1hr
cm
rain 24hr
cm
rain mn
cm
humidity
%
barometer
mb
20260505100017 15 105 0.0 0.0 0.00 0.00 0.00 89 1006.1
20260505094508 15 105 0.0 0.0 0.00 0.00 0.00 88 1005.7
20260505093007 15 105 0.0 0.0 0.00 0.00 0.00 87 1005.7
20260505091507 15 105 0.0 3.2 0.00 0.00 0.00 88 1005.0
20260505090006 15 105 1.6 4.8 0.00 0.00 0.00 87 1005.0
20260505084506 15 114 1.6 8.0 0.00 0.00 0.00 87 1005.0
20260505083010 15 111 3.2 8.0 0.00 0.00 0.00 89 1004.9
20260505081506 14 109 3.2 6.4 0.00 0.00 0.00 92 1004.8
20260505080000 14 115 1.6 9.7 0.00 0.00 0.00 92 1005.1
20260505074559 14 111 1.6 6.4 0.00 0.00 0.00 91 1005.2
20260505073058 14 130 1.6 4.8 0.00 0.00 0.00 91 1005.5
20260505071610 14 136 1.6 4.8 0.00 0.00 0.00 91 1005.6
20260505070105 14 124 1.6 4.8 0.00 0.00 0.00 91 1005.8
20260505064556 14 116 0.0 6.4 0.00 0.00 0.00 91 1005.9
20260505063052 14 116 0.0 4.8 0.00 0.00 0.00 90 1006.2
20260505061557 14 127 1.6 4.8 0.00 0.00 0.00 91 1006.4
20260505060049 14 117 3.2 9.7 0.00 0.00 0.00 91 1006.5
20260505054553 14 119 3.2 6.4 0.00 0.00 0.00 90 1007.0
20260505053056 15 118 0.0 4.8 0.00 0.00 0.00 90 1006.9
20260505051545 15 114 0.0 4.8 0.00 0.00 0.00 89 1007.2
20260505041539 15 144 0.0 4.8 0.00 0.00 0.00 87 1007.5
20260505040043 16 149 0.0 3.2 0.00 0.00 0.00 86 1007.4
20260505034537 16 134 0.0 0.0 0.00 0.00 0.00 85 1007.3
20260505033041 16 134 0.0 0.0 0.00 0.00 0.00 84 1007.6
20260505031536 17 134 0.0 0.0 0.00 0.00 0.00 82 1007.5
20260505030037 17 134 0.0 3.2 0.00 0.00 0.00 82 1007.4
20260505024535 17 133 0.0 3.2 0.00 0.00 0.00 81 1007.1
20260505023035 18 133 0.0 4.8 0.00 0.00 0.00 79 1007.5
20260505021534 18 153 1.6 4.8 0.00 0.00 0.00 75 1006.8
20260505020033 20 167 0.0 4.8 0.00 0.00 0.00 73 1006.6
20260505014532 20 165 0.0 3.2 0.00 0.00 0.00 71 1006.5
20260505013031 20 157 0.0 3.2 0.00 0.00 0.00 69 1006.2
20260505011530 21 151 0.0 3.2 0.00 0.00 0.00 66 1006.0
20260505010029 21 178 1.6 4.8 0.00 0.00 0.00 65 1006.0
20260505004533 22 175 1.6 8.0 0.00 0.00 0.00 63 1005.9
20260505003028 22 166 1.6 6.4 0.00 0.00 0.00 62 1005.9
20260505001528 23 117 1.6 12.9 0.00 0.00 0.00 60 1005.8
20260505000029 24 219 4.8 16.1 0.00 0.00 0.00 57 1005.7
20260504234526 24 218 4.8 29.0 0.00 0.00 0.00 56 1005.9
20260504233025 25 175 4.8 24.1 0.00 0.00 0.00 55 1005.9
20260504231524 25 182 6.4 24.1 0.00 0.00 0.00 54 1006.1
20260504230027 25 170 6.4 22.5 0.00 0.00 0.00 53 1006.1
20260504224522 25 226 3.2 22.5 0.00 0.00 0.00 54 1006.2
20260504223022 26 169 8.0 32.2 0.00 0.00 0.00 53 1006.1
20260504221524 26 213 6.4 25.7 0.00 0.00 0.00 52 1006.2
20260504220124 26 221 11.3 22.5 0.00 0.00 0.00 50 1006.3
20260504214518 26 175 9.7 30.6 0.00 0.00 0.00 53 1006.3
20260504213018 26 127 8.0 33.8 0.00 0.00 0.00 52 1006.4
20260504211517 26 284 12.9 32.2 0.00 0.00 0.00 52 1006.6
20260504210018 26 196 9.7 19.3 0.00 0.00 0.00 51 1006.7
20260504204514 26 232 11.3 33.8 0.00 0.00 0.00 51 1006.8
20260504203014 26 151 14.5 30.6 0.00 0.00 0.00 50 1007.0
20260504201510 26 150 8.0 27.4 0.00 0.00 0.00 51 1007.3
20260504200014 26 149 6.4 30.6 0.00 0.00 0.00 51 1007.5
20260504194506 26 146 12.9 27.4 0.00 0.00 0.00 50 1007.7
20260504193002 26 192 6.4 22.5 0.00 0.00 0.00 52 1007.9
20260504191506 26 178 9.7 30.6 0.00 0.00 0.00 52 1008.1
20260504190111 26 245 9.7 32.2 0.00 0.00 0.00 51 1008.2
20260504184615 26 126 9.7 30.6 0.00 0.00 0.00 53 1008.1
20260504183101 26 200 9.7 32.2 0.00 0.00 0.00 53 1008.5
20260504181555 25 168 8.0 30.6 0.00 0.00 0.00 52 1008.4
20260504180053 25 217 9.7 29.0 0.00 0.00 0.00 53 1008.6
20260504174552 25 221 11.3 29.0 0.00 0.00 0.00 53 1008.8
20260504173055 25 252 6.4 32.2 0.00 0.00 0.00 52 1008.9
20260504171547 25 263 14.5 30.6 0.00 0.00 0.00 52 1009.1